Tracking 31027 objects as of 19-Jul-2025
HD Live streaming from Space Station
objects crossing your sky now

METEOR 2-5 DEB

Track METEOR 2-5 DEB now!
10-day predictions


NORAD ID: 39608
Int'l Code: 1979-095CK
Perigee: 763.0 km
Apogee: 785.1 km
Inclination: 81.2 °
Period: 100.2 minutes
Semi major axis: 7145 km
RCS: Unknown
Launch date: October 31, 1979
Source: Commonwealth of Independent States (former USSR) (CIS)
Launch site: PLESETSK MISSILE AND SPACE COMPLEX (PKMTR)

Note: This is SATELLITE DEBRIS
Your satellite tracking list
FENGYUN 1C DEB
Track 1 satellite(s)




NASA's NSSDC Master Catalog

Two Line Element Set (TLE):
1 39608U 79095CK  25197.50658063  .00002763  00000-0  91853-3 0  9990
2 39608  81.2012 109.8689 0015470 317.4158  42.5827 14.37458140554367
Source of the keplerian elements: AFSPC